Regional Weather Roundup
Issued by NWS

Home | Current Version | Previous Version | Text Only | Print | Product List | Glossary Off
Versions: 1 2 3 4 5 6 7 8 9 10 11 12 13 14 15 16 17 18 19 20 21 22 23 24 25 26 27 28 29 30 31 32 33 34 35 36 37 38 39 40 41 42 43 44 45 46 47 48 49 50

000
ASUS43 KMKX 251311
RWRWI

WISCONSIN REGIONAL WEATHER ROUNDUP
NATIONAL WEATHER SERVICE MILWAUKEE/SULLIVAN WI
700 AM CST THU DEC 25 2014

NOTE: "FAIR" INDICATES FEW OR NO CLOUDS BELOW 12,000 FEET WITH NO
SIGNIFICANT WEATHER AND/OR OBSTRUCTIONS TO VISIBILITY.

WIZ001-002-006>008-014>016-023>028-251400-
NORTHWEST WISCONSIN

CITY           SKY/WX    TMP DP  RH WIND       PRES   REMARKS
SUPERIOR ARPT  CLOUDY    32  29  88 SW10      29.60R WCI  24
ASHLAND        CLOUDY    32  28  85 SW13      29.60R WCI  22
HAYWARD        CLOUDY    31  26  82 S12       29.61R WCI  22
SIREN          CLOUDY    31  28  87 SW12      29.64R WCI  22
CUMBERLAND     CLOUDY    30  28  93 SW12      29.64R WCI  21
RICE LAKE      CLOUDY    31  28  86 S9        29.66R WCI  23
CHETEK         CLOUDY    31  28  89 S8        29.66R WCI  23
LADYSMITH      CLOUDY    32  29  89 S6        29.66R WCI  26
EAU CLAIRE     CLOUDY    31  26  82 SW8       29.68R WCI  23
MENOMONIE      CLOUDY    31  27  86 S8        29.68R WCI  23
NEW RICHMOND   CLOUDY    30  28  94 S9        29.66R WCI  22
OSCEOLA        CLOUDY    31  30  96 S8        29.68R WCI  24
$$

WIZ003>005-009-010-017-018-251400-
NORTH CENTRAL WISCONSIN

CITY           SKY/WX    TMP DP  RH WIND       PRES   REMARKS
MANITOWISH WTR CLOUDY    29  28  96 SW9       29.59R WCI  21
ARBOR VITAE    CLOUDY    32  29  90 SW10      29.61R WCI  23
WOODRUFF       CLOUDY    32  29  90 SW10      29.61R WCI  23
RHINELANDER    CLOUDY    29  26  89 W10       29.62R WCI  20
EAGLE RIVER    CLOUDY    30  28  94 SW10      29.60R WCI  21
LAND O LAKES   CLOUDY    31  29  92 SW7       29.60R WCI  24
PHILLIPS       CLOUDY    29  27  90 SW8       29.62R WCI  21
TOMAHAWK       CLOUDY    29  27  90 SW6       29.65R WCI  23
MEDFORD        CLOUDY    29  27  90 SW9       29.66R WCI  21
MERRILL        CLOUDY    31  28  91 SW9G16    29.66R WCI  23
$$

WIZ029-030-035-036-043>047-251400-
CENTRAL WISCONSIN

CITY           SKY/WX    TMP DP  RH WIND       PRES   REMARKS
WAUSAU         CLOUDY    31  26  82 W12       29.66R WCI  22
MOSINEE        CLOUDY    30  28  93 SW15      29.68R WCI  19
MARSHFIELD     CLOUDY    31  27  85 SW10      29.67S WCI  22
STEVENS POINT  CLOUDY    30  26  85 W9G17     29.70R WCI  22
WAUPACA        CLOUDY    34  29  82 SW12      29.72R WCI  26
WAUTOMA        CLOUDY    33  30  89 SW7       29.74R WCI  27
WISC RAPIDS    CLOUDY    32  26  78 SW7       29.71S WCI  26
CAMP DOUGLAS   CLOUDY    31  31  99 SW10      29.74R WCI  22
$$

WIZ011>013-019>022-031-037>040-048>050-251400-
NORTHEAST WISCONSIN

CITY           SKY/WX    TMP DP  RH WIND       PRES   REMARKS
ANTIGO         CLOUDY    30  27  91 W12       29.65R WCI  20
SHAWANO        CLOUDY    35  30  83 SW8G18    29.69S WCI  28
OCONTO         CLOUDY    32  30  94 SW8       29.70R WCI  24
STURGEON BAY   CLEAR     30  27  86 SW12      29.70R WCI  21
GREEN BAY      CLOUDY    34  30  85 SW9       29.71S WCI  27
MANITOWOC      CLOUDY    35  30  82 W8        29.74R WCI  29
APPLETON       CLOUDY    34  30  86 SW10      29.71R WCI  26
CLINTONVILLE   CLOUDY    32  30  93 W8        29.70R WCI  25
OSHKOSH        CLOUDY    34  27  75 SW8       29.73R WCI  27
$$

WIZ032>034-041-042-053>061-251400-
SOUTHWEST WISCONSIN

CITY           SKY/WX    TMP DP  RH WIND       PRES   REMARKS
LA CROSSE      CLOUDY    32  26  78 S9        29.74R WCI  24
SPARTA         CLOUDY    31  27  84 SW6       29.75R WCI  25
VIROQUA        CLOUDY    30  30 100 SW9       29.73R WCI  21
BOSCOBEL       CLOUDY    33  27  78 S8        29.78R WCI  26
PRAIRIE DU CHI CLOUDY    32  27  80 S8        29.78R WCI  25
PLATTEVILLE    CLOUDY    32  28  88 CALM      29.80R
$$

WIZ056-057-062-063-064-067-068-251400-
SOUTH CENTRAL WISCONSIN

CITY           SKY/WX    TMP DP  RH WIND       PRES   REMARKS
REEDSBURG      CLOUDY    31  27  86 SW9       29.76R WCI  23
BARABOO/DELLS  CLOUDY    31  27  84 SW12      29.75R WCI  22
LONE ROCK      CLOUDY    35  26  69 SW9       29.78R WCI  28
MINERAL POINT  CLOUDY    32  30  93 SW8       29.78R WCI  25
MADISON        CLOUDY    32  26  78 SW10G21   29.78R WCI  24
MIDDLETON      CLOUDY    32  27  81 SW12G21   29.79R WCI  23
WATERTOWN      CLOUDY    32  29  90 SW9       29.78R WCI  24
MONROE         CLOUDY    32  28  86 SW16G23   29.80R WCI  21
JANESVILLE     CLOUDY    34  28  80 MISG      29.78S
$$

WIZ051-052-058>065-066-070>072-251400-
SOUTHEAST WISCONSIN

CITY           SKY/WX    TMP DP  RH WIND       PRES   REMARKS
MILWAUKEE      CLOUDY    35  27  72 SW8       29.80R WCI  29
WAUKESHA       CLOUDY    30  27  86 SW10      29.79R WCI  21
MILWAUKEE/TIMM CLOUDY    32  27  80 W15G23    29.79R WCI  22
RACINE         CLOUDY    34  27  75 W15G23    29.82R WCI  24
BURLINGTON     CLOUDY    32  28  84 SW13      29.81R WCI  22
KENOSHA        CLOUDY    34  28  79 W13       29.82R WCI  25
FOND DU LAC    CLOUDY    34  28  79 SW8       29.75R WCI  27
SHEBOYGAN      CLOUDY    34  28  79 SW10      29.75R WCI  26
WEST BEND      CLOUDY    32  28  86 SW10G16   29.76R WCI  24
JUNEAU         CLOUDY    32  28  86 SW12G18   29.77S WCI  23
$$

LSZ147-162-251400-
LAKE SUPERIOR

STATION/POSITION TIME  TEMP    WIND        PRES    WAVE
                       AIR SEA DIR/SP/G            HT/PER
                 (UTC) (F)     (DEG/KT/KT) (MB)    (FT/S)
DEVILS ISLAND    1300   34     230/ 18/ 21 1002.1R
PORT WING        1200   33     210/  8/ 14 1001.7R
SAXON HARBOR     1200   34     200/  8/ 13 1001.7R
$$

LMZ867-665-643>646-251400-
LAKE MICHIGAN

STATION/POSITION TIME  TEMP    WIND        PRES    WAVE
                       AIR SEA DIR/SP/G            HT/PER
                 (UTC) (F)     (DEG/KT/KT) (MB)    (FT/S)
CHAMBERS ISLAND  1200   33     220/  6/ 15 1004.4R
NORTHPORT PIER   1200   34     250/  6/ 19 1003.4R
SISTER BAY       1213          260/ 18/ 20   N/A
ALGOMA LAKESHORE 1200          240/ 10/ 14   N/A
KEWAUNEE LAKESHO 1200   33     250/  7/ 12 1004.7R
SHEBOYGAN LAKESH 1300   36 37  240/ 13/ 15 1008.4R
PORT WASHINGTON  1200   36     260/  8/ 13 1008.5R
MILWAUKEE LAKESH 1200   36     250/ 15/ 21   N/A
KENOSHA   LAKESH 1300   35     240/ 10/ 16 1010.2R
$$

TC  - TEMPERATURE IN CELSIUS
VSB - VISIBILITY IN STATUTE MILES
WCI - WIND CHILL INDEX
HX  - HEAT INDEX




USA.gov is the U.S. government's official web portal to all federal, state and local government web resources and services.